Skip Page Navigation
NASA JPL Caltech
NASA Logo - Jet Propulsion Laboratory + View the NASA Portal
+ Center for Near-Earth Object Studies
JPL Home Earth Solar System Stars & Galaxies Technology
JPL Solar System Dynamics
BODIES ORBITS EPHEMERIDES TOOLS PHYSICAL DATA DISCOVERY FAQ SITE MAP
JPL Small-Body Database Browser
Search: [ help ]  
249294 (2008 TC118)
Classification: Outer Main-belt Asteroid          SPK-ID: 2249294
Ephemeris | Orbit Diagram | Orbital Elements | Mission Design | Physical Parameters | Discovery Circumstances ]

[ show orbit diagram ]
Orbital Elements at Epoch 2459000.5 (2020-May-31.0) TDB
Reference: JPL 17 (heliocentric ecliptic J2000)
 Element Value Uncertainty (1-sigma)   Units 
e .04517501390481406 6.5396e-08  
a 3.265651281355433 4.0334e-08 au
q 3.118125439311928 2.2559e-07 au
i 3.425264085529772 6.1644e-06 deg
node 31.78660840791991 0.00010202 deg
peri 304.8206673468974 0.00011645 deg
M 44.23289977266293 5.5051e-05 deg
tp 2458735.652396027040
(2019-Sep-09.15239603)
0.0003305 TDB
period 2155.525365063032
5.90
3.9934e-05
1.093e-07
d
yr
n .1670126484405684 3.0941e-09 deg/d
Q 3.413177123398939 4.2156e-08 au
  Orbit Determination Parameters
   # obs. used (total)      252  
   data-arc span      8357 days (22.88 yr)  
   first obs. used      1996-11-08  
   last obs. used      2019-09-26  
   planetary ephem.      DE431  
   SB-pert. ephem.      SB431-N16  
   condition code      0  
   norm. resid. RMS      .58397  
   source      ORB  
   producer      Otto Matic  
   solution date      2019-Nov-08 02:45:13  

Additional Information
 Earth MOID = 2.11029 au 
 Jupiter MOID = 1.78858 au 
 T_jup = 3.173 
[ show covariance matrix ]

Ephemeris | Orbit Diagram | Orbital Elements | Mission Design | Physical Parameters | Discovery Circumstances ]

Physical Parameter Table
Parameter Symbol Value Units Sigma Reference Notes
absolute magnitude H 15.5   n/a MPO454847  
diameter diameter 7.043 km 0.439 urn:nasa:pds:neowise_diameters_albedos::2.0[mainbelt] (http://adsabs.harvard.edu/abs/2011ApJ...741...68M)  
geometric albedo albedo 0.020   0.002 urn:nasa:pds:neowise_diameters_albedos::2.0[mainbelt] (http://adsabs.harvard.edu/abs/2011ApJ...741...68M)  

249294 (2008 TC118)          Discovered 2008-Oct-06 by Spacewatch at Kitt Peak
Reference: 20100824/Numbers.arcLast Updated: 2010-08-27

Alternate Designations
 2008 TC118 = 2002 UU30 
Ephemeris | Orbit Diagram | Orbital Elements | Mission Design | Physical Parameters | Discovery Circumstances ]
ABOUT SSD CREDITS/AWARDS PRIVACY/COPYRIGHT GLOSSARY LINKS
FirstGov 2020-Aug-04 11:52 UT
(server date/time)  
NASA Home Page
Site Manager:   Ryan S. Park
Webmaster  Alan B. Chamberlin